TimeCEST,TemperatureF,Dew PointF,Humidity,Sea Level PressureIn,VisibilityMPH,Wind Direction,Wind SpeedMPH,Gust SpeedMPH,PrecipitationIn,Events,Conditions,WindDirDegrees,DateUTC
12:25 AM,50.0,46.4,87,29.95,6.2,South,8.1,-,N/A,,Scattered Clouds,170,2012-10-04 22:25:00
1:25 AM,51.8,46.4,82,29.92,6.2,South,9.2,-,N/A,,Mostly Cloudy,170,2012-10-04 23:25:00
2:00 AM,53,46,68,29.91,25,South,11.2,,,,Scattered Clouds,170,2012-10-05 00:00:00
2:25 AM,53.6,46.4,77,29.89,6.2,South,9.2,-,N/A,,Mostly Cloudy,170,2012-10-05 00:25:00
3:25 AM,53.6,48.2,82,29.86,6.2,South,13.8,-,N/A,,Light Drizzle,180,2012-10-05 01:25:00
4:25 AM,55.4,51.8,88,29.83,6.2,South,15.0,-,N/A,Rain,Light Rain,190,2012-10-05 02:25:00
5:00 AM,55,51,84,29.83,12,South,13.4,,,Rain,Rain,190,2012-10-05 03:00:00
5:01 AM,55.4,51.8,88,29.83,6.2,SSW,15.0,-,N/A,,Mostly Cloudy,200,2012-10-05 03:01:00
5:25 AM,55.4,51.8,88,29.80,6.2,SSW,15.0,-,N/A,Rain,Light Rain,210,2012-10-05 03:25:00
6:25 AM,57.2,53.6,88,29.77,6.2,SSW,21.9,-,N/A,,Light Drizzle,200,2012-10-05 04:25:00
7:24 AM,57.2,53.6,88,29.74,6.2,SSW,23.0,-,N/A,Rain,Light Rain,210,2012-10-05 05:24:00
7:25 AM,57.2,53.6,88,29.74,6.2,SSW,23.0,-,N/A,Rain,Light Rain,210,2012-10-05 05:25:00
8:00 AM,58,54,83,29.75,9,SSW,24.6,,,Rain,Light Rain,210,2012-10-05 06:00:00
8:25 AM,59.0,55.4,88,29.74,6.2,SSW,24.2,35.7,N/A,,Mostly Cloudy,210,2012-10-05 06:25:00
9:23 AM,60.8,55.4,82,29.74,6.2,SW,28.8,-,N/A,,Mostly Cloudy,220,2012-10-05 07:23:00
9:25 AM,60.8,55.4,82,29.74,6.2,SW,28.8,-,N/A,,Mostly Cloudy,220,2012-10-05 07:25:00
10:25 AM,60.8,55.4,82,29.77,6.2,SW,27.6,39.1,N/A,,Mostly Cloudy,220,2012-10-05 08:25:00
10:31 AM,60.8,55.4,82,29.77,6.2,SW,26.5,-,N/A,,Mostly Cloudy,220,2012-10-05 08:31:00
10:37 AM,60.8,55.4,82,29.77,6.2,SSW,26.5,-,N/A,,Mostly Cloudy,210,2012-10-05 08:37:00
10:46 AM,60.8,55.4,82,29.77,6.2,SSW,26.5,-,N/A,,Mostly Cloudy,210,2012-10-05 08:46:00
11:00 AM,62,56,73,29.78,19,SW,26.8,,,,Clear,220,2012-10-05 09:00:00
11:06 AM,62.6,55.4,77,29.77,6.2,SW,25.3,38.0,N/A,,Overcast,220,2012-10-05 09:06:00
11:25 AM,62.6,55.4,77,29.77,6.2,North,-9999.0,-,N/A,,Mostly Cloudy,0,2012-10-05 09:25:00
12:25 PM,62.6,55.4,77,29.80,6.2,SW,20.7,32.2,N/A,,Mostly Cloudy,230,2012-10-05 10:25:00
1:25 PM,64.4,57.2,77,29.80,6.2,SW,23.0,-,N/A,,Mostly Cloudy,230,2012-10-05 11:25:00
2:00 PM,64,57,71,29.82,16,SW,20.1,,,,Clear,230,2012-10-05 12:00:00
2:01 PM,64.4,57.2,77,29.80,6.2,SW,19.6,-,N/A,Rain,Light Rain Showers,220,2012-10-05 12:01:00
2:25 PM,62.6,57.2,82,29.83,5.6,SW,18.4,-,N/A,,Drizzle,230,2012-10-05 12:25:00
2:31 PM,62.6,57.2,82,29.83,6.2,SW,18.4,-,N/A,,Drizzle,230,2012-10-05 12:31:00
2:46 PM,64.4,59.0,83,29.83,6.2,SW,18.4,-,N/A,Rain,Light Rain Showers,230,2012-10-05 12:46:00
3:05 PM,64.4,59.0,83,29.83,4.3,WSW,16.1,-,N/A,Rain,Light Rain Showers,240,2012-10-05 13:05:00
3:13 PM,60.8,59.0,94,29.83,-9999.0,NW,13.8,-,N/A,Rain,Heavy Rain Showers,310,2012-10-05 13:13:00
3:25 PM,59.0,59.0,100,29.83,-9999.0,WNW,11.5,-,N/A,Rain,Heavy Rain Showers,300,2012-10-05 13:25:00
3:41 PM,59.0,59.0,100,29.86,2.2,WNW,11.5,-,N/A,Rain,Rain Showers,290,2012-10-05 13:41:00
3:47 PM,59.0,59.0,100,29.86,-9999.0,West,12.7,-,N/A,Rain,Rain Showers,280,2012-10-05 13:47:00
4:25 PM,60.8,59.0,94,29.86,6.2,West,11.5,-,N/A,,Mostly Cloudy,270,2012-10-05 14:25:00
4:41 PM,60.8,57.2,88,29.86,6.2,West,13.8,-,N/A,,Mostly Cloudy,260,2012-10-05 14:41:00
5:00 PM,61,57,81,29.88,25,West,13.4,,,Rain,Drizzle,260,2012-10-05 15:00:00
5:25 PM,59.0,55.4,88,29.89,5.0,West,16.1,-,N/A,Rain,Light Rain Showers,260,2012-10-05 15:25:00
6:25 PM,59.0,55.4,88,29.89,3.1,WSW,12.7,-,N/A,Rain,Light Rain Showers,250,2012-10-05 16:25:00
6:46 PM,59.0,55.4,88,29.89,6.2,WSW,9.2,-,N/A,,Mostly Cloudy,250,2012-10-05 16:46:00
7:25 PM,57.2,55.4,94,29.89,6.2,SW,6.9,-,N/A,,Mostly Cloudy,220,2012-10-05 17:25:00
8:00 PM,58,56,91,29.90,22,SW,6.7,,,,Clear,220,2012-10-05 18:00:00
8:25 PM,57.2,57.2,100,29.89,6.2,SW,5.8,-,N/A,,Mostly Cloudy,220,2012-10-05 18:25:00
9:11 PM,59.0,57.2,94,29.89,4.3,SW,6.9,-,N/A,Rain,Light Rain,220,2012-10-05 19:11:00
9:18 PM,59.0,57.2,94,29.89,5.0,SW,6.9,-,N/A,Rain,Light Rain Showers,220,2012-10-05 19:18:00
9:25 PM,59.0,57.2,94,29.89,6.2,SW,8.1,-,N/A,Rain,Light Rain Showers,220,2012-10-05 19:25:00
10:25 PM,59.0,57.2,94,29.89,6.2,SW,5.8,-,N/A,,Mostly Cloudy,220,2012-10-05 20:25:00
10:50 PM,59.0,57.2,94,29.89,4.3,SSW,6.9,-,N/A,,Heavy Drizzle,210,2012-10-05 20:50:00
11:00 PM,59,58,94,29.90,4,SSW,6.7,,,Rain,Drizzle,210,2012-10-05 21:00:00
11:12 PM,59.0,57.2,94,29.89,5.0,SW,9.2,-,N/A,Rain,Rain Showers,220,2012-10-05 21:12:00
11:25 PM,59.0,57.2,94,29.89,6.2,SW,10.4,-,N/A,,Mostly Cloudy,220,2012-10-05 21:25:00
11:51 PM,59.0,59.0,100,29.89,6.2,SSW,6.9,-,N/A,,Mostly Cloudy,210,2012-10-05 21:51:00
11:57 PM,59.0,59.0,100,29.89,6.2,SSW,6.9,-,N/A,,Mostly Cloudy,210,2012-10-05 21:57:00